Location: Ch�risy
(50.2331°N, 2.9131°E)
Time: 18:42:18
(UTC+00:00)

Cosmos 2082 Rocket - Pass Details

Date: 17 January 2021
Orbit: 832 x 855 km, 71.0° (Epoch: 26 February)

Event Time Altitude Azimuth Distance (km) Brightness Sun altitude
Rises 20:15:28 0° 331° (NNW) 3,438 5.9 -37.4°
Reaches altitude 10° 20:17:59 10° 336° (NNW) 2,498 5.0 -37.7°
Enters shadow 20:19:12 17° 339° (NNW) 2,060 4.5 -37.9°
